JST523 YSSY-YMML

Flight info

Callsign JST523
Flight time 1h 4m
Altitude 34000
Route WOL DCT CB DCT BOYSE
Aircraft A321/M-SDE3FGHIRWY/LB1

Departure

Time 2026-04-21 10:08
Airport Sydney Kingsford Smith International Airport (YSSY)

Arrival

Time 2026-04-21 11:13
Airport Melbourne Airport (YMML)
Time Latitude Longitude Altitude Speed Heading
2026-04-21 09:40 -33.93112 151.17714 30 ft 0 kts 190°
2026-04-21 09:59 -33.93097 151.17717 30 ft 3 kts 185°
2026-04-21 09:59 -33.93078 151.17719 30 ft 3 kts 197°
2026-04-21 09:59 -33.93065 151.17727 30 ft 2 kts 226°
2026-04-21 09:59 -33.93055 151.17743 30 ft 3 kts 259°
2026-04-21 10:00 -33.93055 151.17765 30 ft 3 kts 286°
2026-04-21 10:00 -33.93059 151.17779 30 ft 0 kts 280°
2026-04-21 10:04 -33.93058 151.17778 30 ft 0 kts 280°
2026-04-21 10:04 -33.93055 151.17765 30 ft 4 kts 288°
2026-04-21 10:04 -33.93038 151.17716 30 ft 9 kts 295°
2026-04-21 10:05 -33.93012 151.17631 30 ft 11 kts 283°
2026-04-21 10:05 -33.92996 151.17536 30 ft 12 kts 281°
2026-04-21 10:05 -33.92980 151.17436 30 ft 12 kts 281°
2026-04-21 10:05 -33.92967 151.17355 30 ft 6 kts 281°
2026-04-21 10:06 -33.92962 151.17326 30 ft 2 kts 281°
2026-04-21 10:06 -33.92962 151.17323 30 ft 0 kts 281°
2026-04-21 10:07 -33.92962 151.17322 30 ft 1 kts 281°
2026-04-21 10:07 -33.92957 151.17295 30 ft 7 kts 281°
2026-04-21 10:07 -33.92983 151.17209 30 ft 16 kts 221°
2026-04-21 10:07 -33.93126 151.17208 31 ft 34 kts 168°
2026-04-21 10:08 -33.93587 151.17328 27 ft 100 kts 168°
2026-04-21 10:08 -33.94468 151.17557 30 ft 152 kts 168°
2026-04-21 10:08 -33.95556 151.17836 456 ft 160 kts 166°
2026-04-21 10:08 -33.96667 151.17964 1078 ft 163 kts 181°
2026-04-21 10:09 -33.97820 151.17896 1741 ft 164 kts 183°
2026-04-21 10:09 -33.98991 151.17792 2106 ft 175 kts 183°
2026-04-21 10:09 -34.00270 151.17679 2329 ft 194 kts 183°
2026-04-21 10:09 -34.01683 151.17561 2520 ft 215 kts 182°
2026-04-21 10:10 -34.03268 151.17592 2730 ft 238 kts 168°
2026-04-21 10:10 -34.04878 151.18085 3451 ft 241 kts 166°
2026-04-21 10:10 -34.06522 151.18642 4047 ft 247 kts 165°
2026-04-21 10:10 -34.08161 151.19224 4915 ft 244 kts 164°
2026-04-21 10:11 -34.09799 151.19809 5587 ft 249 kts 164°
2026-04-21 10:11 -34.11481 151.20406 6258 ft 252 kts 164°
2026-04-21 10:11 -34.13166 151.20992 7001 ft 253 kts 164°
2026-04-21 10:11 -34.14880 151.21572 7570 ft 259 kts 165°
2026-04-21 10:12 -34.16629 151.22156 8208 ft 262 kts 164°
2026-04-21 10:12 -34.18440 151.22491 8825 ft 267 kts 181°
2026-04-21 10:12 -34.20271 151.22045 9447 ft 273 kts 200°
2026-04-21 10:12 -34.21895 151.20807 10076 ft 282 kts 220°
2026-04-21 10:13 -34.23250 151.19001 10367 ft 300 kts 226°
2026-04-21 10:13 -34.24637 151.17054 10775 ft 309 kts 226°
2026-04-21 10:13 -34.26043 151.15069 11362 ft 312 kts 226°
2026-04-21 10:13 -34.27458 151.13068 11983 ft 314 kts 226°
2026-04-21 10:14 -34.28881 151.11047 12613 ft 316 kts 227°
2026-04-21 10:14 -34.30316 151.09016 13228 ft 319 kts 226°
2026-04-21 10:14 -34.31766 151.06970 13842 ft 321 kts 227°
2026-04-21 10:14 -34.33227 151.04911 14418 ft 324 kts 227°
2026-04-21 10:15 -34.34699 151.02836 14954 ft 326 kts 227°
2026-04-21 10:15 -34.36181 151.00744 15496 ft 328 kts 227°
2026-04-21 10:15 -34.37735 150.98715 16004 ft 330 kts 220°
2026-04-21 10:15 -34.39482 150.96806 16130 ft 346 kts 219°
2026-04-21 10:16 -34.41313 150.94829 16324 ft 359 kts 219°
2026-04-21 10:16 -34.43193 150.92803 16770 ft 363 kts 219°
2026-04-21 10:16 -34.45088 150.90760 17298 ft 366 kts 219°
2026-04-21 10:16 -34.47016 150.88671 17842 ft 368 kts 219°
2026-04-21 10:17 -34.48929 150.86588 18386 ft 371 kts 220°
2026-04-21 10:17 -34.50854 150.84490 18884 ft 373 kts 219°
2026-04-21 10:17 -34.52789 150.82382 19348 ft 375 kts 219°
2026-04-21 10:17 -34.54715 150.80241 19806 ft 378 kts 223°
2026-04-21 10:18 -34.56388 150.77764 20267 ft 383 kts 233°
2026-04-21 10:18 -34.57739 150.74954 20739 ft 387 kts 237°
2026-04-21 10:18 -34.59055 150.72096 21200 ft 389 kts 237°
2026-04-21 10:18 -34.60378 150.69224 21646 ft 390 kts 238°
2026-04-21 10:19 -34.61707 150.66340 22077 ft 393 kts 237°
2026-04-21 10:19 -34.63048 150.63440 22518 ft 395 kts 237°
2026-04-21 10:19 -34.64397 150.60529 22957 ft 397 kts 237°
2026-04-21 10:19 -34.65753 150.57601 23373 ft 399 kts 237°
2026-04-21 10:20 -34.67114 150.54651 23789 ft 401 kts 237°
2026-04-21 10:20 -34.68479 150.51683 24165 ft 403 kts 237°
2026-04-21 10:20 -34.69849 150.48703 24505 ft 405 kts 237°
2026-04-21 10:20 -34.71225 150.45705 24848 ft 407 kts 237°
2026-04-21 10:21 -34.72604 150.42698 25210 ft 408 kts 237°
2026-04-21 10:21 -34.73990 150.39674 25556 ft 410 kts 237°
2026-04-21 10:21 -34.75381 150.36642 25893 ft 411 kts 237°
2026-04-21 10:21 -34.76779 150.33596 26200 ft 413 kts 237°
2026-04-21 10:22 -34.78183 150.30538 26540 ft 415 kts 237°
2026-04-21 10:22 -34.79592 150.27468 26870 ft 416 kts 237°
2026-04-21 10:22 -34.81002 150.24388 27190 ft 418 kts 237°
2026-04-21 10:22 -34.82416 150.21293 27503 ft 419 kts 237°
2026-04-21 10:23 -34.83834 150.18185 27806 ft 421 kts 237°
2026-04-21 10:23 -34.85254 150.15064 28104 ft 422 kts 237°
2026-04-21 10:23 -34.86677 150.11930 28409 ft 424 kts 237°
2026-04-21 10:23 -34.88107 150.08783 28703 ft 425 kts 237°
2026-04-21 10:24 -34.89543 150.05626 28995 ft 427 kts 237°
2026-04-21 10:24 -34.90983 150.02458 29267 ft 428 kts 237°
2026-04-21 10:24 -34.92449 149.99230 29540 ft 430 kts 237°
2026-04-21 10:24 -34.93898 149.96037 29827 ft 432 kts 237°
2026-04-21 10:25 -34.95352 149.92824 30102 ft 434 kts 237°
2026-04-21 10:25 -34.96808 149.89597 30367 ft 435 kts 237°
2026-04-21 10:25 -34.98267 149.86361 30686 ft 435 kts 237°
2026-04-21 10:25 -34.99720 149.83134 31037 ft 433 kts 237°
2026-04-21 10:26 -35.01171 149.79912 31372 ft 432 kts 237°
2026-04-21 10:26 -35.02614 149.76713 31701 ft 431 kts 237°
2026-04-21 10:26 -35.04061 149.73506 32012 ft 430 kts 237°
2026-04-21 10:26 -35.05501 149.70312 32330 ft 429 kts 237°
2026-04-21 10:27 -35.06933 149.67130 32647 ft 428 kts 237°
2026-04-21 10:27 -35.08366 149.63938 32960 ft 427 kts 237°
2026-04-21 10:27 -35.09791 149.60761 33264 ft 426 kts 237°
2026-04-21 10:27 -35.11214 149.57588 33574 ft 425 kts 237°
2026-04-21 10:28 -35.12650 149.54383 33877 ft 424 kts 237°
2026-04-21 10:28 -35.14065 149.51224 34170 ft 423 kts 237°
2026-04-21 10:28 -35.15477 149.48068 34375 ft 424 kts 237°
2026-04-21 10:29 -35.18328 149.41681 34421 ft 433 kts 237°
2026-04-21 10:29 -35.21230 149.35166 34412 ft 438 kts 237°
2026-04-21 10:30 -35.24141 149.28605 34410 ft 439 kts 237°
2026-04-21 10:30 -35.27049 149.22039 34410 ft 439 kts 237°
2026-04-21 10:31 -35.30386 149.15843 34409 ft 435 kts 230°
2026-04-21 10:31 -35.33990 149.09885 34413 ft 436 kts 230°
2026-04-21 10:32 -35.37585 149.03906 34422 ft 436 kts 230°
2026-04-21 10:32 -35.41175 148.97918 34424 ft 436 kts 230°
2026-04-21 10:33 -35.44764 148.91927 34423 ft 436 kts 230°
2026-04-21 10:33 -35.48353 148.85928 34426 ft 436 kts 230°
2026-04-21 10:34 -35.51958 148.79871 34426 ft 436 kts 230°
2026-04-21 10:34 -35.55517 148.73883 34428 ft 437 kts 230°
2026-04-21 10:35 -35.59124 148.67816 34430 ft 437 kts 230°
2026-04-21 10:35 -35.62710 148.61784 34427 ft 437 kts 230°
2026-04-21 10:36 -35.66292 148.55742 34428 ft 437 kts 230°
2026-04-21 10:36 -35.69870 148.49684 34424 ft 438 kts 231°
2026-04-21 10:37 -35.72863 148.44609 34430 ft 438 kts 231°
2026-04-21 10:37 -35.76444 148.38547 34415 ft 438 kts 230°
2026-04-21 10:38 -35.80024 148.32480 34410 ft 438 kts 231°
2026-04-21 10:38 -35.83594 148.26405 34409 ft 438 kts 231°
2026-04-21 10:39 -35.87155 148.20317 34415 ft 438 kts 231°
2026-04-21 10:39 -35.90720 148.14224 34402 ft 438 kts 231°
2026-04-21 10:40 -35.94307 148.08089 34392 ft 438 kts 231°
2026-04-21 10:40 -35.97866 148.01996 34391 ft 438 kts 231°
2026-04-21 10:41 -36.01417 147.95900 34387 ft 438 kts 231°
2026-04-21 10:41 -36.04972 147.89786 34379 ft 438 kts 231°
2026-04-21 10:42 -36.08522 147.83671 34379 ft 438 kts 231°
2026-04-21 10:42 -36.12062 147.77548 34377 ft 438 kts 231°
2026-04-21 10:43 -36.15603 147.71417 34374 ft 438 kts 231°
2026-04-21 10:43 -36.19159 147.65289 34380 ft 438 kts 231°
2026-04-21 10:44 -36.22702 147.59152 34373 ft 438 kts 231°
2026-04-21 10:44 -36.26227 147.52992 34372 ft 438 kts 232°
2026-04-21 10:45 -36.29761 147.46829 34378 ft 439 kts 232°
2026-04-21 10:45 -36.33293 147.40663 34372 ft 439 kts 232°
2026-04-21 10:46 -36.36825 147.34493 34368 ft 439 kts 232°
2026-04-21 10:46 -36.40353 147.28313 34368 ft 439 kts 232°
2026-04-21 10:47 -36.43886 147.22119 34364 ft 439 kts 232°
2026-04-21 10:47 -36.47440 147.15885 34364 ft 439 kts 232°
2026-04-21 10:48 -36.50972 147.09680 34366 ft 440 kts 232°
2026-04-21 10:48 -36.54495 147.03461 34369 ft 440 kts 232°
2026-04-21 10:49 -36.58008 146.97227 34369 ft 440 kts 232°
2026-04-21 10:49 -36.61686 146.91169 34373 ft 438 kts 228°
2026-04-21 10:50 -36.65621 146.85391 34363 ft 437 kts 227°
2026-04-21 10:50 -36.67609 146.82523 34067 ft 437 kts 227°
2026-04-21 10:50 -36.69580 146.79646 33808 ft 437 kts 227°
2026-04-21 10:50 -36.71533 146.76745 33542 ft 438 kts 228°
2026-04-21 10:51 -36.73477 146.73815 33274 ft 439 kts 228°
2026-04-21 10:51 -36.75412 146.70871 33021 ft 440 kts 228°
2026-04-21 10:51 -36.77351 146.67913 32761 ft 441 kts 229°
2026-04-21 10:51 -36.79166 146.64822 32499 ft 443 kts 233°
2026-04-21 10:52 -36.80902 146.61637 32238 ft 444 kts 233°
2026-04-21 10:52 -36.82608 146.58417 31989 ft 445 kts 234°
2026-04-21 10:52 -36.84302 146.55173 31738 ft 447 kts 234°
2026-04-21 10:52 -36.85995 146.51921 31494 ft 448 kts 234°
2026-04-21 10:53 -36.87697 146.48656 31244 ft 449 kts 234°
2026-04-21 10:53 -36.89403 146.45391 31000 ft 449 kts 234°
2026-04-21 10:53 -36.91119 146.42122 30722 ft 451 kts 234°
2026-04-21 10:53 -36.92844 146.38846 30189 ft 452 kts 234°
2026-04-21 10:54 -36.94577 146.35560 29680 ft 453 kts 234°
2026-04-21 10:54 -36.96313 146.32265 29190 ft 455 kts 234°
2026-04-21 10:54 -36.98054 146.28954 28707 ft 457 kts 234°
2026-04-21 10:54 -36.99801 146.25623 28219 ft 459 kts 234°
2026-04-21 10:55 -37.01575 146.22232 27740 ft 460 kts 234°
2026-04-21 10:55 -37.03325 146.18882 27266 ft 459 kts 234°
2026-04-21 10:55 -37.05066 146.15545 26804 ft 457 kts 234°
2026-04-21 10:55 -37.06798 146.12220 26333 ft 455 kts 234°
2026-04-21 10:56 -37.08520 146.08913 25858 ft 452 kts 234°
2026-04-21 10:56 -37.10234 146.05621 25388 ft 450 kts 234°
2026-04-21 10:56 -37.11939 146.02351 24905 ft 447 kts 234°
2026-04-21 10:56 -37.13633 145.99095 24421 ft 445 kts 234°
2026-04-21 10:57 -37.15318 145.95848 23923 ft 443 kts 234°
2026-04-21 10:57 -37.16991 145.92621 23372 ft 440 kts 234°
2026-04-21 10:57 -37.18655 145.89414 22883 ft 438 kts 234°
2026-04-21 10:57 -37.20308 145.86221 22377 ft 435 kts 234°
2026-04-21 10:58 -37.21947 145.83054 21872 ft 432 kts 235°
2026-04-21 10:58 -37.23576 145.79906 21366 ft 428 kts 235°
2026-04-21 10:58 -37.25194 145.76782 20862 ft 426 kts 235°
2026-04-21 10:58 -37.26799 145.73673 20366 ft 423 kts 235°
2026-04-21 10:59 -37.28389 145.70585 19865 ft 420 kts 235°
2026-04-21 10:59 -37.29970 145.67518 19380 ft 417 kts 234°
2026-04-21 10:59 -37.31892 145.64862 18885 ft 409 kts 214°
2026-04-21 10:59 -37.34438 145.63364 18376 ft 405 kts 192°
2026-04-21 11:00 -37.37233 145.63091 17893 ft 404 kts 180°
2026-04-21 11:00 -37.40043 145.63189 17424 ft 403 kts 178°
2026-04-21 11:00 -37.42830 145.63077 16941 ft 399 kts 190°
2026-04-21 11:00 -37.45428 145.61941 16461 ft 396 kts 210°
2026-04-21 11:01 -37.47508 145.59712 15974 ft 394 kts 230°
2026-04-21 11:01 -37.49148 145.56893 15484 ft 393 kts 233°
2026-04-21 11:01 -37.50737 145.54099 14998 ft 391 kts 233°
2026-04-21 11:02 -37.53902 145.48575 14031 ft 386 kts 233°
2026-04-21 11:02 -37.55476 145.45851 13538 ft 384 kts 233°
2026-04-21 11:02 -37.57050 145.43141 13070 ft 382 kts 233°
2026-04-21 11:02 -37.58617 145.40442 12617 ft 380 kts 233°
2026-04-21 11:03 -37.60153 145.37797 12375 ft 364 kts 233°
2026-04-21 11:03 -37.61596 145.35311 12250 ft 339 kts 233°
2026-04-21 11:03 -37.62943 145.32986 12118 ft 318 kts 233°
2026-04-21 11:03 -37.64204 145.30800 11990 ft 299 kts 233°
2026-04-21 11:04 -37.65395 145.28729 11721 ft 287 kts 234°
2026-04-21 11:04 -37.66554 145.26712 11261 ft 283 kts 234°
2026-04-21 11:04 -37.67707 145.24710 10771 ft 281 kts 234°
2026-04-21 11:04 -37.68850 145.22727 10270 ft 279 kts 234°
2026-04-21 11:05 -37.69989 145.20748 9743 ft 277 kts 234°
2026-04-21 11:05 -37.71121 145.18785 9208 ft 276 kts 234°
2026-04-21 11:05 -37.72229 145.16861 8988 ft 262 kts 234°
2026-04-21 11:05 -37.73276 145.15043 8458 ft 252 kts 234°
2026-04-21 11:06 -37.74299 145.13265 7796 ft 250 kts 234°
2026-04-21 11:06 -37.75312 145.11502 7146 ft 245 kts 235°
2026-04-21 11:06 -37.76313 145.09758 6629 ft 245 kts 235°
2026-04-21 11:06 -37.77320 145.07998 6447 ft 249 kts 235°
2026-04-21 11:07 -37.78329 145.06231 5937 ft 246 kts 235°
2026-04-21 11:07 -37.79325 145.04488 5459 ft 244 kts 235°
2026-04-21 11:07 -37.80316 145.02758 5009 ft 239 kts 235°
2026-04-21 11:07 -37.81176 145.01048 4853 ft 216 kts 246°
2026-04-21 11:08 -37.81644 144.99333 4616 ft 200 kts 259°
2026-04-21 11:08 -37.81927 144.97653 4286 ft 191 kts 258°
2026-04-21 11:08 -37.82213 144.96011 3853 ft 191 kts 258°
2026-04-21 11:08 -37.82502 144.94368 3656 ft 192 kts 257°
2026-04-21 11:09 -37.82744 144.92697 3525 ft 193 kts 261°
2026-04-21 11:09 -37.82882 144.91584 3450 ft 194 kts 261°
2026-04-21 11:09 -37.83085 144.89898 3350 ft 194 kts 261°
2026-04-21 11:09 -37.83011 144.88219 3241 ft 193 kts 292°
2026-04-21 11:10 -37.82197 144.86899 3105 ft 193 kts 327°
2026-04-21 11:10 -37.80951 144.86387 2829 ft 189 kts 354°
2026-04-21 11:10 -37.79644 144.86162 2552 ft 189 kts 353°
2026-04-21 11:10 -37.78344 144.85926 2299 ft 188 kts 353°
2026-04-21 11:11 -37.77094 144.85693 2049 ft 173 kts 353°
2026-04-21 11:11 -37.75955 144.85478 1818 ft 158 kts 353°
2026-04-21 11:11 -37.74879 144.85274 1596 ft 154 kts 354°
2026-04-21 11:11 -37.73828 144.85078 1394 ft 152 kts 353°
2026-04-21 11:12 -37.72790 144.84886 1186 ft 149 kts 353°
2026-04-21 11:12 -37.71781 144.84688 958 ft 144 kts 352°
2026-04-21 11:12 -37.70801 144.84506 782 ft 141 kts 352°
2026-04-21 11:12 -37.69831 144.84309 631 ft 139 kts 353°
2026-04-21 11:13 -37.68894 144.84148 471 ft 137 kts 353°
2026-04-21 11:13 -37.67964 144.83984 353 ft 119 kts 351°
2026-04-21 11:13 -37.67438 144.83888 370 ft 45 kts 351°
2026-04-21 11:13 -37.67168 144.83840 381 ft 34 kts 352°
2026-04-21 11:14 -37.66964 144.83853 387 ft 27 kts 10°
2026-04-21 11:14 -37.66823 144.83921 392 ft 12 kts 23°
2026-04-21 11:14 -37.66754 144.83957 389 ft 10 kts 22°
2026-04-21 11:14 -37.66721 144.83981 394 ft 3 kts 52°
2026-04-21 11:15 -37.66714 144.84036 393 ft 11 kts 88°
2026-04-21 11:15 -37.66752 144.84155 393 ft 17 kts 135°
2026-04-21 11:15 -37.66870 144.84208 389 ft 20 kts 171°
2026-04-21 11:15 -37.67009 144.84234 386 ft 16 kts 166°
2026-04-21 11:16 -37.67056 144.84330 386 ft 13 kts 85°
2026-04-21 11:16 -37.67037 144.84433 388 ft 11 kts 68°
2026-04-21 11:16 -37.67017 144.84521 389 ft 9 kts 83°
2026-04-21 11:16 -37.67042 144.84563 390 ft 6 kts 155°
2026-04-21 11:17 -37.67067 144.84571 389 ft 3 kts 168°
2026-04-21 11:17 -37.67075 144.84573 389 ft 0 kts 169°